Showing default

ANTELSAT, 40034

Orbit data source: Space-Track

ANTELSAT, 40034 is an Uruguayan payload satellite in SSO that was launched on Thu, 19 Jun 2014 UTC via a DNEPR launch vehicle from the Orenburg, Russia (OREN). Payload-class satellites include a variety of spacecraft equipped with specific instruments for various scientific and technological missions. These include communications satellites like Starlink; space stations such as the ISS; scientific satellites like the Hubble; Earth observation satellites from companies like Planet Labs, Umbra, and HawkEye 360; GPS; miniature CubeSats for education and research; and military/defense satellites.

Loading next visibility...
Identifier
40034, 2014-033AA
Orbit
SSO
Last TLE update
19 hours ago
Origin
Manufacturer
UdelaR FING
Mission
Non-operational Civil Tech/Com
Bus & Motor
CUBESAT 2U, Unknown motor
Mass
~2 kg wet, ~2 kg dry
Launch date (UTC)
2014-06-19 (11 years ago)
Launch vehicle
DNEPR
Launch site
Orenburg, Russia (OREN)
Object type
Payload
Rocket body
Debris
Shape & HBR
Box + 1 Ant, 0.2 m
Radar Cross Section
0.040 m², Medium (>0.1 m² and < 1m²)

Expand to show TLE details & history

TLE from 19 hours ago
0 ANTELSAT
1 40034U 14033AA  25162.87514013  .00002728  00000-0  30349-3 0  9998
2 40034  97.7353 321.1473 0046266 198.3794 161.5753 14.87179563590703
Epoch: 2025-06-11T21:00Z
TLE epoch observation values (Epoch: 2025-06-11T21:00:12.107Z)
Latitude
0.00001°
Longitude
105.64548°
Altitude
640.47 km
Speed
7.521 km/s
True Right ascension
21h 24m 35s
True Declination
0° 00' 00"
Sunlit
Object was in full shadow at epoch
Visualization orbit readout
Latitude
11.10608°
Longitude
-72.08315°
Altitude
580.21 km
Speed
7.587 km/s
Apparent Right ascension
11h 20m 33s
Apparent Declination
-15° 26' 18"
Sunlit
Object is in daylight
Visualization observer readout
Local Sidereal Time
01:55:49
Azimuth
65.312° ENE
Elevation
-48.319°
Doppler factor
1
Orbital elements
Apogee altitude
636.079 km
Perigee altitude
571.474 km
Semi-major axis
6,981.914 km
Eccentricity
0.00463
Inclination
97.7353°
RAAN
321.1473°
Arg. of periapsis
198.3794°
True anomaly
Unknown
Mean anomaly
161.5753°
Eccentric anomaly
Unknown
Mean motion
3.72033 °/min
Orbital period
96.77 mins
BSTAR
0.00030349
Loading maneuver chart data...
Loading SW <> Apogee altitude chart data...
Loading historical data...
Loading historical data...
Loading historical data...
Loading historical data...
Loading historical data...
Loading historical data...
Loading historical data...

ANTELSAT Visibility forecast

Observer location: undefined°, undefined°

Span
Click to sort rows by Start time (UTC) header in descending order
Start Az.
Max El. time (UTC)
Max El. Az.
Max El.
End time (UTC)
End Az.
7 mins2025-06-12 23:24:26.993Z13.015° NNE2025-06-12 23:28:26.993Z183.198° SSW44.041°2025-06-12 23:31:26.993Z192.322° SSW
6 mins2025-06-13 10:17:26.993Z143.289° SSE2025-06-13 10:19:26.993Z93.962° ESE39.565°2025-06-13 10:23:26.993Z357.979° N
|